Date String (YYYY-MM-DD hh:mm:ss) UTC,Instrument flags,Ambient pressure (hPa),Sample flow (lpm),Bypass flow (lpm),Sample temperature (°C),Ambient temperature (°C),ASC tube jacket temperature (°C),LED temperature (°C),Box temperature (°C),Sample RH (%),Span deviation,Mass concentration (μg/m³),Mass concentration (μg/m³),Mass concentration (μg/m³)
DateTimeUTC,F1_M11,P_M11,Q1_M11,Q2_M11,T1_M11,T2_M11,T3_M11,T4_M11,T5_M11,U1_M11,ZSPAN_M11,X0_M11,X2_M11,X1_M11
2022-10-19 17:00:00,,0832.9,4.98,0.00,29.3,28.2,00.0,38.0,31.2,08.6,0000.0,0009.56,0001.94,0000.89
2022-10-19 17:01:00,,0833.0,5.00,0.00,29.3,28.2,00.0,38.0,31.2,08.5,0000.0,0010.35,0001.92,0000.90
2022-10-19 17:02:00,,0832.9,5.00,0.00,29.3,28.2,00.0,38.0,31.2,08.5,0000.0,0010.04,0001.97,0000.91
2022-10-19 17:03:00,,0832.9,5.00,0.00,29.3,28.2,00.0,38.1,31.2,08.3,0000.0,0010.11,0002.05,0000.94
2022-10-19 17:04:00,,0832.8,5.01,0.00,29.4,28.2,00.0,38.1,31.2,08.0,0000.0,0009.63,0002.01,0000.93
2022-10-19 17:05:00,,0832.8,4.99,0.00,29.4,28.3,00.0,38.1,31.2,08.2,0000.0,0009.72,0002.01,0000.94
2022-10-19 17:06:00,,0832.9,4.99,0.00,29.4,28.3,00.0,38.1,31.2,07.9,0000.0,0009.32,0001.92,0000.93
2022-10-19 17:07:00,,0832.8,5.01,0.00,29.4,28.3,00.0,38.1,31.2,07.6,0000.0,0009.20,0001.89,0000.91
2022-10-19 17:08:00,,0832.9,4.99,0.00,29.4,28.3,00.0,38.2,31.3,08.3,0000.0,0008.46,0001.81,0000.88
2022-10-19 17:09:00,,0832.9,5.01,0.00,29.5,28.4,00.0,38.2,31.3,08.0,0000.0,0007.78,0001.77,0000.87
2022-10-19 17:10:00,,0832.9,4.99,0.00,29.5,28.4,00.0,38.2,31.3,08.1,0000.0,0007.73,0001.70,0000.87
2022-10-19 17:11:00,,0832.9,5.01,0.00,29.5,28.4,00.0,38.2,31.4,08.2,0000.0,0007.35,0001.63,0000.86
2022-10-19 17:12:00,,0832.8,5.00,0.00,29.5,28.4,00.0,38.2,31.4,08.1,0000.0,0006.44,0001.58,0000.85
2022-10-19 17:13:00,,0832.8,5.00,0.00,29.6,28.5,00.0,38.3,31.4,08.0,0000.0,0007.35,0001.57,0000.84
2022-10-19 17:14:00,,0832.9,5.00,0.00,29.6,28.5,00.0,38.3,31.4,08.0,0000.0,0007.29,0001.58,0000.82
2022-10-19 17:15:00,,0832.9,5.00,0.00,29.6,28.5,00.0,38.3,31.5,07.5,0000.0,0006.69,0001.58,0000.81
2022-10-19 17:16:00,,0832.8,4.99,0.00,29.6,28.5,00.0,38.3,31.4,07.1,0000.0,0006.61,0001.58,0000.79
2022-10-19 17:17:00,,0832.8,5.01,0.00,29.6,28.5,00.0,38.3,31.4,06.9,0000.0,0006.67,0001.56,0000.77
2022-10-19 17:18:00,,0832.8,4.99,0.00,29.7,28.6,00.0,38.4,31.5,07.4,0000.0,0006.48,0001.47,0000.76
2022-10-19 17:19:00,,0832.8,5.01,0.00,29.7,28.6,00.0,38.4,31.5,08.3,0000.0,0006.50,0001.49,0000.75
2022-10-19 17:20:00,,0832.7,4.99,0.00,29.7,28.6,00.0,38.4,31.5,08.5,0000.0,0006.21,0001.50,0000.76
2022-10-19 17:21:00,,0832.7,5.00,0.00,29.7,28.6,00.0,38.4,31.5,08.4,0000.0,0005.87,0001.51,0000.75
2022-10-19 17:22:00,,0832.8,5.01,0.00,29.8,28.7,00.0,38.4,31.6,08.7,0000.0,0005.91,0001.52,0000.75
2022-10-19 17:23:00,,0832.8,5.00,0.00,29.8,28.7,00.0,38.5,31.6,08.7,0000.0,0005.74,0001.58,0000.76
2022-10-19 17:24:00,,0832.8,5.00,0.00,29.8,28.7,00.0,38.5,31.6,08.1,0000.0,0004.28,0001.55,0000.75
2022-10-19 17:25:00,,0832.8,5.01,0.00,29.8,28.7,00.0,38.5,31.7,07.9,0000.0,0003.98,0001.44,0000.75
2022-10-19 17:26:00,,0832.8,4.99,0.00,29.9,28.8,00.0,38.5,31.7,08.0,0000.0,0004.14,0001.45,0000.75
2022-10-19 17:27:00,,0832.8,5.01,0.00,29.9,28.8,00.0,38.6,31.7,08.1,0000.0,0004.13,0001.43,0000.76
2022-10-19 17:28:00,,0832.8,5.00,0.00,29.9,28.8,00.0,38.6,31.7,07.9,0000.0,0004.32,0001.47,0000.77
2022-10-19 17:29:00,,0832.8,5.00,0.00,29.9,28.8,00.0,38.6,31.7,07.6,0000.0,0004.27,0001.51,0000.78
2022-10-19 17:30:00,,0832.8,5.01,0.00,29.9,28.8,00.0,38.6,31.7,07.4,0000.0,0004.28,0001.47,0000.78
2022-10-19 17:31:00,,0832.8,4.99,0.00,30.0,28.9,00.0,38.6,31.8,07.5,0000.0,0005.36,0001.47,0000.79
2022-10-19 17:32:00,,0832.8,5.00,0.00,30.0,28.9,00.0,38.7,31.8,07.3,0000.0,0005.61,0001.42,0000.78
2022-10-19 17:33:00,,0832.8,5.01,0.00,30.0,28.9,00.0,38.7,31.8,07.5,0000.0,0006.98,0001.40,0000.77
2022-10-19 17:34:00,,0832.8,4.99,0.00,30.0,28.9,00.0,38.7,31.9,07.6,0000.0,0007.44,0001.38,0000.76
2022-10-19 17:35:00,,0832.8,5.00,0.00,30.1,29.0,00.0,38.7,31.9,07.5,0000.0,0007.99,0001.41,0000.76
2022-10-19 17:36:00,,0832.8,5.01,0.00,30.1,29.0,00.0,38.8,31.9,07.6,0000.0,0008.23,0001.47,0000.76
2022-10-19 17:37:00,,0832.8,5.00,0.00,30.1,29.0,00.0,38.8,31.9,07.6,0000.0,0008.85,0001.45,0000.76
2022-10-19 17:38:00,,0832.8,5.00,0.00,30.1,29.0,00.0,38.8,31.9,07.8,0000.0,0009.11,0001.46,0000.76
2022-10-19 17:39:00,,0832.8,4.99,0.00,30.1,29.1,00.0,38.8,32.0,07.9,0000.0,0009.13,0001.49,0000.78
2022-10-19 17:40:00,,0832.8,4.99,0.00,30.2,29.1,00.0,38.8,32.0,07.9,0000.0,0009.13,0001.50,0000.79
2022-10-19 17:41:00,,0832.8,4.99,0.00,30.2,29.1,00.0,38.9,32.0,08.0,0000.0,0009.13,0001.58,0000.80
2022-10-19 17:42:00,,0832.8,5.01,0.00,30.2,29.1,00.0,38.9,32.0,07.9,0000.0,0008.61,0001.66,0000.80
2022-10-19 17:43:00,,0832.7,4.99,0.00,30.2,29.1,00.0,38.9,32.1,08.0,0000.0,0008.51,0001.75,0000.83
2022-10-19 17:44:00,,0832.7,5.00,0.00,30.2,29.1,00.0,38.9,32.1,08.1,0000.0,0008.02,0001.80,0000.86
2022-10-19 17:45:00,,0832.8,4.99,0.00,30.2,29.2,00.0,38.9,32.1,08.0,0000.0,0008.25,0001.80,0000.88
2022-10-19 17:46:00,,0832.8,5.00,0.00,30.3,29.2,00.0,39.0,32.1,08.4,0000.0,0008.28,0001.82,0000.90
2022-10-19 17:47:00,,0832.8,5.00,0.00,30.3,29.2,00.0,39.0,32.1,08.5,0000.0,0009.03,0001.91,0000.92
2022-10-19 17:48:00,,0832.8,5.01,0.00,30.3,29.2,00.0,39.0,32.1,08.3,0000.0,0008.82,0001.96,0000.94
2022-10-19 17:49:00,,0832.8,5.01,0.00,30.3,29.2,00.0,39.0,32.2,08.4,0000.0,0008.64,0001.99,0000.95
2022-10-19 17:50:00,,0832.8,4.99,0.00,30.3,29.3,00.0,39.0,32.2,08.5,0000.0,0008.49,0001.95,0000.95
2022-10-19 17:51:00,,0832.8,4.99,0.00,30.4,29.3,00.0,39.1,32.2,08.3,0000.0,0008.83,0001.97,0000.97
2022-10-19 17:52:00,,0832.7,5.01,0.00,30.4,29.3,00.0,39.1,32.2,08.2,0000.0,0009.39,0001.94,0000.98
2022-10-19 17:53:00,,0832.7,4.99,0.00,30.4,29.3,00.0,39.1,32.3,07.9,0000.0,0009.97,0001.90,0000.99
2022-10-19 17:54:00,,0832.7,4.98,0.00,30.4,29.3,00.0,39.1,32.3,07.7,0000.0,0010.36,0001.93,0001.00
2022-10-19 17:55:00,,0832.7,5.01,0.00,30.4,29.3,00.0,39.2,32.3,08.2,0000.0,0010.23,0001.99,0001.01
2022-10-19 17:56:00,,0832.7,5.00,0.00,30.5,29.3,00.0,39.2,32.3,08.4,0000.0,0010.19,0002.05,0001.02
2022-10-19 17:57:00,,0832.7,5.01,0.00,30.5,29.4,00.0,39.2,32.3,08.0,0000.0,0009.76,0002.11,0001.03
2022-10-19 17:58:00,,0832.7,4.98,0.00,30.5,29.4,00.0,39.2,32.3,07.6,0000.0,0009.01,0002.08,0001.04
2022-10-19 17:59:00,,0832.7,5.02,0.00,30.5,29.4,00.0,39.2,32.3,07.4,0000.0,0008.44,0002.12,0001.04
